Simultaneous Nadir Overpasses (SNOs) Predictions

Prediction of SNOs between AQUA and METOP-C Satellite Orbit:

Table of predicted SNOs for the next 14.0 days since TLE Epoch: 4/29/2023
Index Date (AQUA) Time (AQUA) Lat,Lon (AQUA) SZA (AQUA ) Date (METOP-C) Time (METOP-C) Lat,Lon (METOP-C) SZA (METOP-C ) Distance(km) Time Diff (sec)
1 05/01/2023 14:47:12 74.41, -46.15 59.24 05/01/2023 14:46:39 74.39, -46.12 59.22 3.02 33
2 05/01/2023 15:36:37 -74.46, 121.39 120.73 05/01/2023 15:37:18 -74.47, 121.42 120.72 1.52 41
3 05/04/2023 08:40:09 74.41, 45.65 58.42 05/04/2023 08:39:39 74.39, 45.63 58.40 2.50 30
4 05/04/2023 09:29:34 -74.46,-146.81 121.55 05/04/2023 09:30:18 -74.47,-146.82 121.53 2.01 44
5 05/07/2023 02:33:05 74.41, 137.44 57.64 05/07/2023 02:32:38 74.43, 137.48 57.66 2.37 27
6 05/07/2023 03:22:30 -74.46, -55.02 122.33 05/07/2023 03:23:18 -74.47, -55.08 122.31 2.59 48
7 05/09/2023 20:25:59 74.42,-130.77 56.90 05/09/2023 20:25:37 74.41,-130.81 56.90 1.25 22
8 05/09/2023 21:15:25 -74.51, 36.65 123.01 05/09/2023 21:16:16 -74.51, 36.76 123.02 3.24 51
9 05/12/2023 13:29:15 -73.77, 154.89 124.48 05/12/2023 13:28:10 -73.72, 151.90 124.46 93.49 65
10 05/12/2023 14:18:53 74.43, -38.99 56.20 05/12/2023 14:18:36 74.44, -39.00 56.22 1.00 17
11 05/12/2023 15:08:18 -74.47, 128.56 123.77 05/12/2023 15:09:16 -74.48, 128.45 123.75 3.72 58



Historial Predications of SNOs between AQUA and METOP-C
